[[{"header":{"parameterUnit":"m.s-1","parameterCategory":1,"la1":30.2991,"la2":30.254,"lo1":-89.0895,"lo2":-89.0444,"dy":0.0017,"dx":0.0017,"nx":28,"ny":28,"refTime":"2026-01-11T03:00:00:Z","depth":0,"parameterNumber":2,"parameterNumberName":"U-component_of_WINDS"},"data":[0,0,0,0,0,0,0,0,0,0,0,0,0,0,0,0,0,0,0,0,0,0,0,0,0,0,0,0,0,0,0,0,0,0,0,0,0,0,0,0,0,0,0,0,0,0,0,0,0,0,0,0,0,0,0,0,0,0,-3.1353,-3.1354,0,-3.1408,-3.1409,-3.141,-3.1291,-3.1287,-3.1283,-3.128,-3.134,-3.1345,-3.135,0,0,0,0,0,0,0,0,0,0,0,0,0,-3.1146,-3.1151,-3.1353,-3.1354,-3.1354,-3.1408,-3.1409,-3.141,-3.1292,-3.1287,-3.1282,-3.1278,-3.1338,-3.1344,-3.1351,0,0,0,0,0,0,0,0,0,0,0,0,0,-3.1222,-3.1152,-3.1353,-3.1302,-3.1298,-3.1408,-3.1409,-3.141,-3.1293,-3.1287,-3.1281,-3.1276,-3.1336,-3.1344,-3.1351,-3.1515,0,0,-3.1375,-3.1379,0,0,0,0,0,0,0,0,-3.1218,-3.123,-3.1309,-3.1305,-3.1301,-3.1337,-3.1358,-3.1445,-3.1294,-3.1295,-3.128,-3.1273,-3.1344,-3.1351,-3.1374,-3.1518,-3.152,-3.1376,-3.1381,-3.1384,-3.1386,0,0,0,0,0,0,0,-3.1213,-3.1227,-3.1375,-3.131,-3.1305,-3.1277,-3.1281,-3.1374,-3.1351,-3.1294,-3.1286,-3.1294,-3.1341,-3.1367,-3.1374,-3.1521,-3.1376,-3.1383,-3.1387,-3.139,-3.1801,-3.1807,0,0,0,0,0,0,-3.1214,-3.1224,-3.1373,-3.1376,-3.1245,-3.1285,-3.129,-3.1331,-3.135,-3.1347,-3.1299,-3.1288,-3.1356,-3.1365,-3.1376,-3.1569,-3.1384,-3.1391,-3.1396,-3.1795,-3.1802,-3.1809,0,0,0,0,0,0,-3.121,-3.1228,-3.1371,-3.1298,-3.1314,-3.1295,-3.1342,-3.1335,-3.1361,-3.1353,-3.1348,-3.1329,-3.1352,-3.1365,-3.1481,-3.1569,-3.1395,-3.1402,-3.1787,-3.1797,-3.1806,-3.1956,0,0,0,0,0,0,-3.1205,-3.1228,-3.129,-3.13,-3.1318,-3.1475,-3.1347,-3.1341,-3.1375,-3.1361,-3.1381,-3.1378,-3.1348,-3.147,-3.1489,-3.1577,-3.1408,-3.178,-3.1792,-3.1803,-3.1943,-3.1969,-3.1991,0,0,0,0,0,-3.1198,-3.133,-3.1293,-3.1312,-3.1395,-3.148,-3.1491,-3.1453,-3.1382,-3.1444,-3.1439,-3.1378,-3.1556,-3.1483,-3.1503,-3.1595,-3.1774,-3.1788,-3.1802,-3.1932,-3.1964,-3.1991,0,0,0,0,0,0,-3.1332,-3.1331,-3.129,-3.143,-3.1456,-3.146,-3.1538,-3.1488,-3.1536,-3.1521,-3.1473,-3.1478,-3.1604,-3.161,-3.1529,-3.1753,-3.1653,-3.1672,-3.1745,-3.1775,-3.1799,-3.1796,-3.1414,0,0,0,0,0,-3.1378,-3.1447,-3.1442,-3.1566,-3.1581,-3.1557,-3.1593,-3.1561,-3.1587,-3.1598,-3.1601,-3.1629,-3.169,-3.1733,-3.1789,-3.1942,-3.1945,-3.2015,-3.2039,-3.2059,-3.2077,-3.2158,-3.2189,-3.1855,-3.1855,-3.1855,0,0,-3.1474,-3.1481,-3.1528,-3.1593,-3.161,-3.1683,-3.1568,-3.165,-3.1704,-3.161,-3.172,-3.1723,-3.1751,-3.1886,-3.1945,-3.1895,-3.2169,-3.2077,-3.2093,-3.21,-3.2175,-3.2207,-3.2235,-3.1865,-3.1863,-3.1862,0,0,-3.1686,-3.1698,-3.1803,-3.1821,-3.1847,-3.183,-3.1855,-3.1867,-3.1865,-3.1973,-3.1905,-3.1968,-3.2076,-3.2098,-3.2124,-3.2343,-3.2289,-3.2362,-3.249,-3.257,-3.2596,-3.2619,-3.2698,-3.2727,-3.2379,-3.238,-3.238,0,-3.1803,-3.1909,-3.1863,-3.195,-3.1981,-3.1898,-3.2003,-3.2024,-3.2068,-3.2091,-3.2033,-3.2166,-3.2179,-3.2318,-3.2371,-3.2394,-3.2422,-3.2361,-3.2596,-3.2619,-3.264,-3.2714,-3.2744,-3.2389,-3.2388,-3.2387,-3.2386,0,-3.2051,-3.2126,-3.2208,-3.2251,-3.229,-3.2386,-3.2355,-3.2401,-3.2365,-3.2354,-3.2465,-3.2477,-3.2535,-3.2565,-3.2531,-3.2699,-3.2667,-3.2604,-3.2502,-3.2681,-3.2751,-3.2779,-3.2401,-3.2398,-3.2395,-3.2393,0,0,-3.2353,-3.2367,-3.2398,-3.2416,-3.2438,-3.2495,-3.2587,-3.2642,-3.2682,-3.2714,-3.2791,-3.2883,-3.2824,-3.2853,-3.282,-3.289,-3.3063,-3.2818,-3.2818,-3.2864,-3.325,-3.3299,-3.3333,-3.3026,-3.3031,-3.3036,-3.3248,0,-3.2564,-3.2721,-3.2682,-3.2838,-3.2907,-3.2828,-3.2908,-3.293,-3.2922,-3.2979,-3.2969,-3.3036,-3.2952,-3.2969,-3.3035,-3.3029,-3.314,-3.3012,-3.3098,-3.3102,-3.3096,-3.3369,-3.3421,-3.3621,-3.3274,-3.3279,-3.3282,0,-3.2832,-3.2873,-3.3037,-3.3045,-3.3073,-3.3146,-3.3192,-3.3248,-3.3271,-3.3259,-3.3291,-3.3245,-3.3335,-3.3231,-3.3356,-3.327,-3.3302,-3.3304,-3.3311,-3.332,-3.3205,-3.3386,-3.3684,-3.3715,-3.3324,-3.3321,-3.3318,0,-3.3037,-3.3133,-3.3243,-3.3261,-3.3274,-3.3327,-3.3335,-3.3352,-3.3387,-3.3428,-3.345,-3.3501,-3.353,-3.3571,-3.3539,-3.3466,-3.3669,-3.3563,-3.3664,-3.3665,-3.3712,-3.371,-3.4021,-3.373,-3.373,-3.3729,-3.3729,0,-3.3278,-3.3382,-3.3335,-3.3404,-3.3517,-3.347,-3.3583,-3.3582,-3.3597,-3.3664,-3.3598,-3.3662,-3.3615,-3.3676,-3.3651,-3.3759,-3.3772,-3.3766,-3.3759,-3.3773,-3.3774,-3.3795,-3.3781,-3.3737,-3.3736,-3.3734,-3.3733,0,-3.3528,-3.3501,-3.3616,-3.3618,-3.362,-3.3704,-3.3706,-3.3769,-3.3754,-3.384,-3.3857,-3.3835,-3.3902,-3.3874,-3.3945,-3.3928,-3.4067,-3.404,-3.4059,-3.4053,-3.4156,-3.4148,-3.4493,-3.4537,-3.4217,-3.422,-3.4222,0,-3.3685,-3.3762,-3.3772,-3.3811,-3.3823,-3.3888,-3.3922,-3.3878,-3.3918,-3.3949,-3.4008,-3.4069,-3.4116,-3.4227,-3.4218,-3.4272,-3.4247,-3.4364,-3.4255,-3.4267,-3.425,-3.4247,-3.4255,-3.4387,-3.4391,-3.4394,-3.4396,0,-3.3966,-3.3948,-3.4001,-3.4049,-3.4092,-3.4128,-3.4158,-3.4194,-3.4151,-3.4199,-3.4266,-3.4302,-3.4373,-3.4435,-3.4482,-3.4491,-3.4438,-3.443,-3.4457,-3.4473,-3.4482,-3.448,-3.4121,-3.4423,-3.4421,-3.4419,-3.4417,-3.4416,-3.4175,-3.424,-3.4256,-3.4317,-3.4334,-3.4364,-3.4423,-3.4415,-3.447,-3.4524,-3.4494,-3.4573,-3.4593,-3.465,-3.4666,-3.4727,-3.4681,-3.4719,-3.4729,-3.474,-3.4754,-3.447,-3.4735,-3.4734,-3.4733,-3.4733,-3.4732,0,-3.4454,-3.446,-3.4516,-3.4559,-3.4607,-3.455,-3.458,-3.4624,-3.4693,-3.4716,-3.4762,-3.4839,-3.4898,-3.4893,-3.4947,-3.4997,-3.4974,-3.5013,-3.501,-3.5013,-3.4791,-3.4764,-3.5031,-3.503,-3.503,-3.503,-3.503,-3.503,-3.4604,-3.4711,-3.4695,-3.481,-3.4815,-3.4891,-3.4913,-3.494,-3.4957,-3.5046,-3.5094,-3.5089,-3.5101,-3.5155,-3.5206,-3.5203,-3.5227,-3.5275,-3.5264,-3.5058,-3.5028,-3.5,-3.4974,-3.5281,-3.5281,-3.548,-3.5481,-3.5483]},{"header":{"parameterUnit":"m.s-1","parameterCategory":1,"la1":30.2991,"la2":30.254,"lo1":-89.0895,"lo2":-89.0444,"dy":0.0017,"dx":0.0017,"nx":28,"ny":28,"refTime":"2026-01-11T03:00:00:Z","depth":0,"parameterNumber":3,"parameterNumberName":"V-component_of_WINDS"},"data":[0,0,0,0,0,0,0,0,0,0,0,0,0,0,0,0,0,0,0,0,0,0,0,0,0,0,0,0,0,0,0,0,0,0,0,0,0,0,0,0,0,0,0,0,0,0,0,0,0,0,0,0,0,0,0,0,0,0,-6.5247,-6.5248,0,-6.5364,-6.5365,-6.5367,-6.5283,-6.5279,-6.5276,-6.5272,-6.5387,-6.5393,-6.54,0,0,0,0,0,0,0,0,0,0,0,0,0,-6.4944,-6.495,-6.5247,-6.5248,-6.525,-6.5364,-6.5366,-6.5367,-6.5284,-6.5279,-6.5275,-6.527,-6.5385,-6.5393,-6.54,0,0,0,0,0,0,0,0,0,0,0,0,0,-6.507,-6.4952,-6.5247,-6.5222,-6.5221,-6.5364,-6.5366,-6.5368,-6.5285,-6.5279,-6.5273,-6.5268,-6.5382,-6.5392,-6.5402,-6.5573,0,0,-6.5431,-6.5436,0,0,0,0,0,0,0,0,-6.5063,-6.5081,-6.5224,-6.5224,-6.5223,-6.5303,-6.5301,-6.5436,-6.5286,-6.526,-6.5272,-6.5266,-6.5363,-6.5374,-6.5408,-6.5579,-6.5583,-6.5432,-6.5438,-6.5442,-6.5445,0,0,0,0,0,0,0,-6.5054,-6.5076,-6.5293,-6.5226,-6.5226,-6.5203,-6.5215,-6.5326,-6.5341,-6.5262,-6.5256,-6.5272,-6.5362,-6.5399,-6.541,-6.5585,-6.5432,-6.5441,-6.5447,-6.5451,-6.5899,-6.5905,0,0,0,0,0,0,-6.5049,-6.5069,-6.5289,-6.5296,-6.5128,-6.5213,-6.5226,-6.5283,-6.534,-6.5343,-6.5276,-6.5267,-6.5385,-6.5399,-6.5414,-6.5617,-6.5442,-6.5451,-6.5457,-6.5893,-6.59,-6.5907,0,0,0,0,0,0,-6.5042,-6.5069,-6.5285,-6.5181,-6.5207,-6.5224,-6.5289,-6.5288,-6.5326,-6.5351,-6.5352,-6.5312,-6.5381,-6.54,-6.5534,-6.562,-6.5456,-6.5465,-6.5886,-6.5895,-6.5904,-6.6026,0,0,0,0,0,0,-6.5034,-6.5067,-6.5135,-6.5183,-6.5213,-6.5405,-6.5294,-6.5295,-6.5343,-6.5333,-6.5385,-6.5388,-6.5378,-6.552,-6.5544,-6.5631,-6.5472,-6.5878,-6.589,-6.5901,-6.6015,-6.6038,-6.6059,0,0,0,0,0,-6.5024,-6.5164,-6.5138,-6.5165,-6.5297,-6.541,-6.5427,-6.5414,-6.5351,-6.5417,-6.5433,-6.5386,-6.5607,-6.5534,-6.556,-6.5652,-6.5873,-6.5887,-6.59,-6.6005,-6.6034,-6.6058,0,0,0,0,0,0,-6.5123,-6.517,-6.5142,-6.5303,-6.5353,-6.5396,-6.5479,-6.5446,-6.5514,-6.5501,-6.5481,-6.5494,-6.5634,-6.5656,-6.5574,-6.5819,-6.5729,-6.5749,-6.58,-6.5828,-6.585,-6.5841,-6.548,0,0,0,0,0,-6.5164,-6.5254,-6.5289,-6.5427,-6.5454,-6.5462,-6.5511,-6.5497,-6.5548,-6.5568,-6.5594,-6.5644,-6.5724,-6.5777,-6.5852,-6.6017,-6.6026,-6.6093,-6.6115,-6.6133,-6.615,-6.6236,-6.6266,-6.5952,-6.5952,-6.5951,0,0,-6.5249,-6.5285,-6.5343,-6.5447,-6.5485,-6.5576,-6.5481,-6.5582,-6.5648,-6.5583,-6.5711,-6.5732,-6.5785,-6.5935,-6.6002,-6.5958,-6.6238,-6.615,-6.6164,-6.6171,-6.6253,-6.6283,-6.631,-6.5961,-6.5959,-6.5958,0,0,-6.545,-6.5487,-6.5606,-6.5645,-6.5704,-6.5708,-6.5737,-6.5785,-6.5796,-6.5925,-6.5877,-6.5955,-6.6094,-6.6134,-6.6172,-6.6387,-6.6346,-6.6412,-6.6527,-6.6612,-6.6636,-6.6658,-6.6733,-6.6761,-6.6428,-6.6429,-6.6429,0,-6.5547,-6.5685,-6.567,-6.5775,-6.5821,-6.5768,-6.5886,-6.5924,-6.6004,-6.6036,-6.5986,-6.6158,-6.6191,-6.6348,-6.64,-6.6434,-6.6464,-6.6405,-6.6634,-6.6656,-6.6676,-6.6747,-6.6776,-6.6436,-6.6435,-6.6435,-6.6434,0,-6.5801,-6.5897,-6.5985,-6.6064,-6.612,-6.6231,-6.6232,-6.629,-6.6271,-6.628,-6.641,-6.6447,-6.6528,-6.6564,-6.6546,-6.6719,-6.6689,-6.6637,-6.6546,-6.6714,-6.678,-6.6808,-6.6447,-6.6444,-6.6442,-6.644,0,0,-6.6068,-6.6138,-6.6171,-6.6205,-6.6265,-6.6338,-6.6445,-6.6526,-6.6575,-6.6631,-6.6719,-6.6838,-6.6789,-6.6833,-6.6819,-6.6893,-6.7059,-6.6831,-6.6832,-6.6871,-6.7249,-6.7287,-6.7319,-6.7032,-6.7037,-6.7041,-6.7244,0,-6.6271,-6.6461,-6.645,-6.6626,-6.6713,-6.6663,-6.6756,-6.6801,-6.6813,-6.6886,-6.6897,-6.6981,-6.6912,-6.6938,-6.7009,-6.7024,-6.7134,-6.7009,-6.7112,-6.7115,-6.7099,-6.7354,-6.7396,-6.7585,-6.727,-6.7274,-6.7277,0,-6.6534,-6.6601,-6.6786,-6.6832,-6.6868,-6.6952,-6.7024,-6.7096,-6.7145,-6.7148,-6.7196,-6.7169,-6.7275,-6.7182,-6.7326,-6.7241,-6.7282,-6.7295,-6.7302,-6.731,-6.7206,-6.7368,-6.7645,-6.7673,-6.7319,-6.7315,-6.7312,0,-6.6709,-6.6845,-6.6973,-6.7004,-6.7061,-6.7121,-6.7147,-6.7191,-6.7239,-6.7302,-6.7333,-6.7406,-6.7446,-6.7502,-6.7495,-6.7428,-6.7641,-6.7547,-6.7644,-6.7644,-6.7691,-6.7688,-6.7977,-6.7719,-6.7719,-6.7718,-6.7718,0,-6.6937,-6.7052,-6.7052,-6.7131,-6.7257,-6.7243,-6.7368,-6.7387,-6.7426,-6.7506,-6.7466,-6.7541,-6.7527,-6.7602,-6.7596,-6.7715,-6.7734,-6.7737,-6.7734,-6.7741,-6.774,-6.7767,-6.7753,-6.7726,-6.7724,-6.7723,-6.7721,0,-6.7154,-6.7159,-6.7295,-6.7337,-6.735,-6.7442,-6.7477,-6.755,-6.7557,-6.7659,-6.7681,-6.7692,-6.7778,-6.7776,-6.7873,-6.7869,-6.8015,-6.7997,-6.7999,-6.7995,-6.8091,-6.8082,-6.8407,-6.8448,-6.8164,-6.8167,-6.8169,0,-6.7298,-6.7386,-6.7438,-6.7489,-6.7519,-6.7602,-6.7652,-6.764,-6.7693,-6.7755,-6.7821,-6.7902,-6.7967,-6.8106,-6.8121,-6.8194,-6.8177,-6.8286,-6.8188,-6.8191,-6.8177,-6.8172,-6.818,-6.8305,-6.8308,-6.8311,-6.8313,0,-6.7554,-6.7552,-6.7626,-6.7701,-6.7761,-6.7819,-6.7872,-6.7916,-6.791,-6.7971,-6.8059,-6.8109,-6.8208,-6.8289,-6.8359,-6.8383,-6.8347,-6.8344,-6.837,-6.8377,-6.8374,-6.8375,-6.805,-6.8336,-6.8334,-6.8332,-6.8331,-6.833,-6.7738,-6.7813,-6.7861,-6.7944,-6.7983,-6.8034,-6.8104,-6.8121,-6.8194,-6.8275,-6.8263,-6.836,-6.8405,-6.8496,-6.8526,-6.86,-6.8562,-6.86,-6.8609,-6.8619,-6.8629,-6.8363,-6.8613,-6.8613,-6.8612,-6.8611,-6.8611,0,-6.7991,-6.8019,-6.8096,-6.8172,-6.8237,-6.8199,-6.8255,-6.8311,-6.8398,-6.8444,-6.8509,-6.8608,-6.8686,-6.8708,-6.8782,-6.8838,-6.8823,-6.8857,-6.8853,-6.8858,-6.866,-6.8629,-6.8868,-6.8868,-6.8868,-6.8868,-6.8868,-6.8868,-6.813,-6.8254,-6.8257,-6.8399,-6.8426,-6.8522,-6.8557,-6.8603,-6.8639,-6.8753,-6.8818,-6.8832,-6.8867,-6.8944,-6.9013,-6.9017,-6.9046,-6.9087,-6.9085,-6.8898,-6.8873,-6.8848,-6.8819,-6.9094,-6.9094,-6.9277,-6.9278,-6.928]}]]